User: anonymous   Login
Location: Newark
(52.3735°N, 16.9806°E)
Time: 04:56:31
(UTC+00:00)
Language:

POLYITAN 1 - Orbit

View from above orbital plane
View from above orbital plane
View from above satellite
View from above satellite

Ground track
Ground track

The orbit data is extracted from the following two-line orbital elements,

1 40042U 14033AJ  21338.78180796  .00001098  00000-0  12107-3 0  9996
2 40042  97.9546 270.9714 0014039 335.3463  24.7081 14.89531991404668
Epoch (UTC): 04 December 2021 18:45:48
Eccentricity: 0.0014039
inclination: 97.9546°
perigee height: 589 km
apogee height: 609 km
right ascension of ascending node: 270.9714°
argument of perigee: 335.3463°
revolutions per day: 14.89531991
mean anomaly at epoch: 24.7081°
orbit number at epoch: 40466

The dashed part of the orbit path shows where the satellite is in the earth's shadow,  

DLR